G2045 Weather Reports


Display with metric or nautical units.
time (UTC)temp
F
wind
direction
speed
MPH
gust
MPH
rain 1hr
in
rain 24hr
in
rain mn
in
humidity
%
barometer
mb
20260502235133 78 8 2.0 5.0 0.00 0.00 0.00 20 1011.1
20260502234627 78 333 2.0 5.0 0.00 0.00 0.00 19 1011.1
20260502234337 78 2 3.0 8.0 0.00 0.00 0.00 19 1011.2
20260502233616 78 313 2.0 8.0 0.00 0.00 0.00 20 1011.2
20260502233108 78 325 2.0 7.0 0.00 0.00 0.00 20 1011.3
20260502232603 78 327 3.0 9.0 0.00 0.00 0.00 20 1011.2
20260502232056 78 298 3.0 9.0 0.00 0.00 0.00 22 1011.2
20260502231551 78 350 2.0 8.0 0.00 0.00 0.00 20 1011.3
20260502231044 79 60 1.0 4.0 0.00 0.00 0.00 23 1011.4
20260502230538 78 112 2.0 8.0 0.00 0.00 0.00 19 1011.5
20260502230045 78 97 1.0 8.0 0.00 0.00 0.00 20 1011.5
20260502225526 78 18 1.0 6.0 0.00 0.00 0.00 20 1011.5
20260502224514 78 83 1.0 4.0 0.00 0.00 0.00 20 1011.6
20260502224008 78 326 1.0 6.0 0.00 0.00 0.00 20 1011.6
20260502223503 78 168 2.0 6.0 0.00 0.00 0.00 21 1011.7
20260502222958 78 137 2.0 6.0 0.00 0.00 0.00 20 1011.7
20260502222715 79 183 2.0 7.0 0.00 0.00 0.00 21 1011.7
20260502221945 79 56 3.0 7.0 0.00 0.00 0.00 19 1011.7
20260502221438 79 163 2.0 6.0 0.00 0.00 0.00 20 1011.9
20260502220932 78 143 2.0 4.0 0.00 0.00 0.00 19 1012.2
20260502220426 78 179 2.0 8.0 0.00 0.00 0.00 18 1012.0
20260502215921 78 338 3.0 8.0 0.00 0.00 0.00 20 1012.2
20260502215637 79 133 3.0 7.0 0.00 0.00 0.00 19 1012.3
20260502214908 79 354 3.0 7.0 0.00 0.00 0.00 19 1012.4
20260502214402 79 181 2.0 6.0 0.00 0.00 0.00 19 1012.5
20260502213856 79 143 2.0 7.0 0.00 0.00 0.00 21 1012.5
20260502213350 79 177 2.0 7.0 0.00 0.00 0.00 20 1012.5
20260502212845 79 78 2.0 7.0 0.00 0.00 0.00 22 1012.6
20260502212340 79 196 2.0 4.0 0.00 0.00 0.00 20 1012.6
20260502211832 79 160 1.0 5.0 0.00 0.00 0.00 21 1012.7
20260502211549 79 291 2.0 5.0 0.00 0.00 0.00 20 1012.8
20260502211042 79 174 2.0 5.0 0.00 0.00 0.00 22 1012.9
20260502210538 79 207 2.0 7.0 0.00 0.00 0.00 24 1012.9
20260502205809 78 133 2.0 7.0 0.00 0.00 0.00 21 1013.0
20260502205305 78 79 2.0 7.0 0.00 0.00 0.00 22 1013.0
20260502204756 78 354 2.0 8.0 0.00 0.00 0.00 26 1013.1
20260502204250 79 102 2.0 8.0 0.00 0.00 0.00 25 1013.1
20260502203744 79 105 2.0 6.0 0.00 0.00 0.00 26 1013.2
20260502203504 78 104 2.0 6.0 0.00 0.00 0.00 27 1013.2
20260502202732 78 134 1.0 6.0 0.00 0.00 0.00 27 1013.2
20260502202226 78 140 1.0 5.0 0.00 0.00 0.00 29 1013.2
20260502201720 77 321 1.0 5.0 0.00 0.00 0.00 28 1013.3
20260502201214 77 40 1.0 5.0 0.00 0.00 0.00 29 1013.4
20260502200708 77 162 1.0 5.0 0.00 0.00 0.00 32 1013.7
20260502200203 77 191 1.0 3.0 0.00 0.00 0.00 29 1013.8
20260502195656 77 177 1.0 4.0 0.00 0.00 0.00 33 1013.9
20260502195150 75 344 1.0 5.0 0.00 0.00 0.00 31 1013.9
20260502194717 75 55 1.0 5.0 0.00 0.00 0.00 32 1014.0
20260502194138 74 198 0.0 4.0 0.00 0.00 0.00 34 1014.1
20260502193632 73 127 0.0 2.0 0.00 0.00 0.00 34 1014.1
20260502193127 73 337 1.0 3.0 0.00 0.00 0.00 36 1014.3
20260502192620 73 329 1.0 3.0 0.00 0.00 0.00 34 1014.5
20260502192114 73 331 1.0 4.0 0.00 0.00 0.00 35 1014.4
20260502191609 74 331 1.0 4.0 0.00 0.00 0.00 34 1014.4
20260502191102 74 337 2.0 7.0 0.00 0.00 0.00 38 1014.4
20260502190815 73 13 1.0 7.0 0.00 0.00 0.00 36 1014.5
20260502190104 72 135 1.0 3.0 0.00 0.00 0.00 39 1014.6
20260502185545 72 6 1.0 4.0 0.00 0.00 0.00 38 1014.7
20260502185044 71 320 1.0 4.0 0.00 0.00 0.00 39 1014.9
20260502184802 70 158 1.0 5.0 0.00 0.00 0.00 37 1015.0
20260502184047 70 5 1.0 5.0 0.00 0.00 0.00 39 1015.0
20260502183544 71 152 1.0 3.0 0.00 0.00 0.00 39 1015.1
20260502183044 71 28 1.0 5.0 0.00 0.00 0.00 39 1015.2
20260502182544 71 326 1.0 5.0 0.00 0.00 0.00 39 1015.3
20260502182045 70 350 3.0 8.0 0.00 0.00 0.00 41 1015.4
20260502181545 69 350 2.0 8.0 0.00 0.00 0.00 41 1015.5
20260502181308 69 289 2.0 7.0 0.00 0.00 0.00 41 1015.6
20260502180545 68 72 2.0 7.0 0.00 0.00 0.00 44 1015.7
20260502170516 64 348 1.0 6.0 0.00 0.00 0.00 50 1015.9
20260502163947 61 160 1.0 5.0 0.00 0.00 0.00 52 1016.3
20260502163439 60 197 1.0 5.0 0.00 0.00 0.00 53 1016.3
20260502162934 60 336 2.0 5.0 0.00 0.00 0.00 57 1016.2
20260502162427 58 331 1.0 5.0 0.00 0.00 0.00 58 1016.2
20260502161921 57 339 1.0 3.0 0.00 0.00 0.00 65 1016.3
20260502161415 56 343 1.0 3.0 0.00 0.00 0.00 64 1016.0
20260502160910 55 325 1.0 2.0 0.00 0.00 0.00 63 1016.2
20260502160403 53 327 1.0 4.0 0.00 0.00 0.00 66 1016.2
20260502152316 48 343 2.0 6.0 0.00 0.00 0.00 79 1016.0
20260502151810 47 329 3.0 7.0 0.00 0.00 0.00 81 1015.9
20260502151303 47 348 3.0 7.0 0.00 0.00 0.00 84 1015.9
20260502150757 46 357 3.0 6.0 0.00 0.00 0.00 87 1016.0
20260502150518 46 3 1.0 6.0 0.00 0.00 0.00 89 1015.9
20260502130534 41 77 0.0 0.0 0.00 0.00 0.00 87 1015.3
20260502123722 42 159 0.0 0.0 0.00 0.00 0.00 84 1015.2
20260502122951 42 159 0.0 0.0 0.00 0.00 0.00 84 1015.0
20260502122449 42 159 0.0 0.0 0.00 0.00 0.00 83 1015.0
20260502121947 42 159 0.0 0.0 0.00 0.00 0.00 83 1014.9
20260502121500 42 159 0.0 0.0 0.00 0.00 0.00 83 1014.9
20260502120946 42 159 0.0 0.0 0.00 0.00 0.00 83 1014.9
20260502120446 42 159 0.0 0.0 0.00 0.00 0.00 82 1015.0
20260502115447 43 159 0.0 0.0 0.00 0.00 0.00 82 1015.1
20260502114946 43 159 0.0 0.0 0.00 0.00 0.00 82 1015.2
20260502114444 43 159 0.0 0.0 0.00 0.00 0.00 82 1015.2
20260502113945 44 159 0.0 0.0 0.00 0.00 0.00 81 1015.2
20260502113445 44 159 0.0 0.0 0.00 0.00 0.00 82 1015.1
20260502112945 44 159 0.0 0.0 0.00 0.00 0.00 82 1015.1
20260502112445 45 159 0.0 0.0 0.00 0.00 0.00 82 1015.1
20260502111944 45 159 0.0 0.0 0.00 0.00 0.00 83 1015.1
20260502111444 45 159 0.0 0.0 0.00 0.00 0.00 83 1015.2
20260502110944 46 159 0.0 0.0 0.00 0.00 0.00 84 1015.2
20260502110444 45 159 0.0 0.0 0.00 0.00 0.00 84 1015.2
20260502105945 45 159 0.0 0.0 0.00 0.00 0.00 82 1015.3
20260502105444 44 159 0.0 0.0 0.00 0.00 0.00 76 1015.3
20260502104944 44 159 0.0 0.0 0.00 0.00 0.00 75 1015.3
20260502104442 44 159 0.0 0.0 0.00 0.00 0.00 75 1015.4
20260502104203 44 159 0.0 0.0 0.00 0.00 0.00 74 1015.3
20260502103704 44 159 0.0 0.0 0.00 0.00 0.00 74 1015.3
20260502102940 44 159 0.0 0.0 0.00 0.00 0.00 73 1015.3
20260502102440 44 159 0.0 0.0 0.00 0.00 0.00 73 1015.3
20260502101940 44 159 0.0 0.0 0.00 0.00 0.00 72 1015.3
20260502101927 44 159 0.0 0.0 0.00 0.00 0.00 72 1015.3
20260502100941 45 159 0.0 0.0 0.00 0.00 0.00 72 1015.1
20260502100438 45 159 0.0 0.0 0.00 0.00 0.00 72 1015.1
20260502091435 46 159 0.0 0.0 0.00 0.00 0.00 67 1015.2
20260502090935 46 159 0.0 0.0 0.00 0.00 0.00 67 1015.2
20260502090656 46 159 0.0 0.0 0.00 0.00 0.00 66 1015.2
20260502071424 50 98 0.0 0.0 0.00 0.00 0.00 58 1015.4
20260502071156 50 98 0.0 0.0 0.00 0.00 0.00 58 1015.4
20260502070424 50 98 0.0 0.0 0.00 0.00 0.00 57 1015.5
20260502065924 50 98 0.0 1.0 0.00 0.00 0.00 56 1015.4
20260502065424 51 98 0.0 1.0 0.00 0.00 0.00 56 1015.5
20260502064924 51 98 0.0 1.0 0.00 0.00 0.00 56 1015.5
20260502064649 51 98 0.0 1.0 0.00 0.00 0.00 55 1015.6
20260502063924 51 98 0.0 1.0 0.00 0.00 0.00 54 1015.6
20260502063424 51 98 0.0 1.0 0.00 0.00 0.00 54 1015.6
20260502062924 52 98 0.0 0.0 0.00 0.00 0.00 53 1015.6
20260502062424 52 98 0.0 0.0 0.00 0.00 0.00 53 1015.5
20260502061924 52 98 0.0 0.0 0.00 0.00 0.00 53 1015.5
20260502061644 52 98 0.0 0.0 0.00 0.00 0.00 52 1015.4
20260502060924 53 98 0.0 0.0 0.00 0.00 0.00 51 1015.4
20260502060424 53 98 0.0 1.0 0.00 0.00 0.00 51 1015.4
20260502055924 53 98 0.0 1.0 0.00 0.00 0.00 50 1015.4
20260502055424 53 98 0.0 0.0 0.00 0.00 0.00 50 1015.5
20260502055151 54 98 0.0 1.0 0.00 0.00 0.00 49 1015.4
20260502054422 54 98 0.0 1.0 0.00 0.00 0.00 49 1015.4
20260502053922 54 98 0.0 2.0 0.00 0.00 0.00 48 1015.4
20260502053420 55 98 0.0 2.0 0.00 0.00 0.00 48 1015.5
20260502053228 55 98 0.0 2.0 0.00 0.00 0.00 47 1015.5
20260502053119 55 100 0.0 2.0 0.00 0.00 0.00 47 1015.4
20260502052144 55 100 0.0 2.0 0.00 0.00 0.00 47 1015.5
20260502051416 56 96 0.0 1.0 0.00 0.00 0.00 47 1015.5
20260502051136 56 96 0.0 1.0 0.00 0.00 0.00 47 1015.5
20260502050416 56 96 0.0 2.0 0.00 0.00 0.00 46 1015.5
20260502050136 56 96 1.0 5.0 0.00 0.00 0.00 46 1015.5
20260502045416 56 127 1.0 5.0 0.00 0.00 0.00 45 1015.5
20260502045134 57 113 0.0 2.0 0.00 0.00 0.00 47 1015.5
20260502044416 57 113 1.0 2.0 0.00 0.00 0.00 47 1015.4
20260502044136 57 115 0.0 2.0 0.00 0.00 0.00 47 1015.5
20260502043412 58 87 0.0 2.0 0.00 0.00 0.00 46 1015.6
20260502042912 58 87 1.0 3.0 0.00 0.00 0.00 46 1015.5
20260502042412 59 87 1.0 3.0 0.00 0.00 0.00 46 1015.6
20260502042136 59 65 0.0 2.0 0.00 0.00 0.00 46 1015.5
20260502041412 60 23 0.0 0.0 0.00 0.00 0.00 47 1015.5
20260502040912 60 346 0.0 0.0 0.00 0.00 0.00 45 1015.5
20260502040633 61 346 0.0 0.0 0.00 0.00 0.00 44 1015.4
20260502035912 61 346 0.0 0.0 0.00 0.00 0.00 43 1015.3
20260502035412 62 346 0.0 2.0 0.00 0.00 0.00 44 1015.4
20260502034908 62 346 0.0 2.0 0.00 0.00 0.00 42 1015.3
20260502034409 63 346 0.0 0.0 0.00 0.00 0.00 41 1015.3
20260502034130 63 346 0.0 1.0 0.00 0.00 0.00 41 1015.4
20260502033408 64 346 0.0 1.0 0.00 0.00 0.00 41 1015.4
20260502032908 65 346 0.0 1.0 0.00 0.00 0.00 39 1015.3
20260502032411 65 345 0.0 2.0 0.00 0.00 0.00 38 1015.2
20260502031911 66 345 1.0 3.0 0.00 0.00 0.00 37 1015.1
20260502031411 66 345 2.0 3.0 0.00 0.00 0.00 35 1015.0
20260502030911 67 349 2.0 3.0 0.00 0.00 0.00 34 1014.9
20260502030407 67 4 2.0 3.0 0.00 0.00 0.00 33 1014.9
20260502025907 67 354 2.0 3.0 0.00 0.00 0.00 32 1014.9
20260502025407 68 4 1.0 5.0 0.00 0.00 0.00 32 1014.7
20260502025127 68 4 2.0 5.0 0.00 0.00 0.00 30 1014.7
20260502024404 69 2 2.0 3.0 0.00 0.00 0.00 30 1014.7
20260502023904 69 15 2.0 3.0 0.00 0.00 0.00 29 1014.7
20260502023404 69 356 1.0 3.0 0.00 0.00 0.00 28 1014.7
20260502022904 70 4 1.0 2.0 0.00 0.00 0.00 28 1014.7
20260502022404 70 4 1.0 2.0 0.00 0.00 0.00 27 1014.7
20260502021900 70 10 1.0 2.0 0.00 0.00 0.00 26 1014.6
20260502021400 71 52 0.0 2.0 0.00 0.00 0.00 24 1014.6
20260502020900 71 92 0.0 2.0 0.00 0.00 0.00 25 1014.6
20260502020359 71 89 0.0 2.0 0.00 0.00 0.00 24 1014.7
20260502015900 71 89 1.0 3.0 0.00 0.00 0.00 23 1014.6
20260502015400 72 86 1.0 3.0 0.00 0.00 0.00 22 1014.6
20260502014900 72 106 0.0 3.0 0.00 0.00 0.00 22 1014.7
20260502014400 72 61 0.0 5.0 0.00 0.00 0.00 23 1014.6
20260502013900 73 12 0.0 5.0 0.00 0.00 0.00 23 1014.7
20260502013400 73 73 0.0 2.0 0.00 0.00 0.00 22 1014.7
20260502012900 73 94 0.0 2.0 0.00 0.00 0.00 21 1014.9
20260502012400 73 90 1.0 3.0 0.00 0.00 0.00 20 1014.9
20260502011900 73 102 1.0 3.0 0.00 0.00 0.00 20 1015.0
20260502011400 73 50 1.0 3.0 0.00 0.00 0.00 21 1015.0
20260502010900 73 151 0.0 2.0 0.00 0.00 0.00 21 1015.1
20260502010400 73 142 0.0 2.0 0.00 0.00 0.00 21 1015.0
20260502005859 73 142 1.0 3.0 0.00 0.00 0.00 20 1015.0
20260502005400 72 112 1.0 3.0 0.00 0.00 0.00 22 1015.0
20260502004900 72 171 0.0 3.0 0.00 0.00 0.00 21 1015.0
20260502004400 72 75 1.0 4.0 0.00 0.00 0.00 22 1015.1
20260502003900 72 93 1.0 4.0 0.00 0.00 0.00 21 1015.1
20260502003400 72 88 1.0 3.0 0.00 0.00 0.00 21 1015.1
20260502002900 72 198 1.0 3.0 0.00 0.00 0.00 20 1015.2
20260502002358 73 328 2.0 5.0 0.00 0.00 0.00 21 1015.2
20260502001858 73 185 2.0 5.0 0.00 0.00 0.00 21 1015.3
20260502001358 73 185 1.0 8.0 0.00 0.00 0.00 22 1015.4
20260502001119 73 14 2.0 8.0 0.00 0.00 0.00 21 1015.3
20260502000402 73 190 2.0 6.0 0.00 0.00 0.00 22 1015.4
20260501235856 73 169 1.0 5.0 0.00 0.00 0.00 22 1015.4
20260501235613 73 183 1.0 4.0 0.00 0.00 0.00 22 1015.5